Time,TemperatureF,DewpointF,PressureIn,WindDirection,WindDirectionDegrees,WindSpeedMPH,WindSpeedGustMPH,Humidity,HourlyPrecipIn,Conditions,Clouds,dailyrainin,SoftwareType,DateUTC
2013-07-02 00:04:00,67.7,52.9,30.04,NNE,32,3.0,6.0,59,0.00,,SKC,0.00,VWS V12.07,2013-07-02 05:04:00,
2013-07-02 00:11:00,67.7,52.9,30.04,ENE,67,2.0,6.0,59,0.00,,SKC,0.00,VWS V12.07,2013-07-02 05:11:00,
2013-07-02 00:17:00,67.5,53.1,30.04,East,92,2.0,6.0,60,0.00,,SKC,0.00,VWS V12.07,2013-07-02 05:17:00,
2013-07-02 00:24:00,67.1,52.8,30.03,NE,48,1.0,6.0,60,0.00,,SKC,0.00,VWS V12.07,2013-07-02 05:24:00,
2013-07-02 00:30:00,67.1,52.8,30.03,NNE,22,3.0,7.0,60,0.00,,SKC,0.00,VWS V12.07,2013-07-02 05:30:00,
2013-07-02 00:37:00,66.9,52.6,30.03,ENE,71,0.0,5.0,60,0.00,,SKC,0.00,VWS V12.07,2013-07-02 05:37:00,
2013-07-02 00:44:00,66.9,53.0,30.03,ENE,61,3.0,7.0,61,0.00,,SKC,0.00,VWS V12.07,2013-07-02 05:44:00,
2013-07-02 00:50:00,66.9,53.0,30.03,NNE,23,1.0,7.0,61,0.00,,SKC,0.00,VWS V12.07,2013-07-02 05:50:00,
2013-07-02 00:57:00,66.6,53.2,30.03,NE,48,0.0,7.0,62,0.00,,SKC,0.00,VWS V12.07,2013-07-02 05:57:00,
2013-07-02 01:04:00,66.5,53.1,30.03,NNE,15,0.0,5.0,62,0.00,,SKC,0.00,VWS V12.07,2013-07-02 06:04:00,
2013-07-02 01:10:00,66.3,52.9,30.03,NNE,18,0.0,5.0,62,0.00,,SKC,0.00,VWS V12.07,2013-07-02 06:10:00,
2013-07-02 01:17:00,66.2,53.2,30.03,East,79,1.0,6.0,63,0.00,,SKC,0.00,VWS V12.07,2013-07-02 06:17:00,
2013-07-02 01:24:00,66.0,53.1,30.03,NE,56,0.0,6.0,63,0.00,,SKC,0.00,VWS V12.07,2013-07-02 06:24:00,
2013-07-02 01:30:00,65.9,53.0,30.03,ENE,58,1.0,6.0,63,0.00,,SKC,0.00,VWS V12.07,2013-07-02 06:30:00,
2013-07-02 01:37:00,65.8,52.9,30.03,NE,37,1.0,5.0,63,0.00,,SKC,0.00,VWS V12.07,2013-07-02 06:37:00,
2013-07-02 01:44:00,65.8,53.3,30.03,NE,44,0.0,6.0,64,0.00,,SKC,0.00,VWS V12.07,2013-07-02 06:44:00,
2013-07-02 01:50:00,65.6,53.1,30.03,WNW,290,0.0,6.0,64,0.00,,SKC,0.00,VWS V12.07,2013-07-02 06:50:00,
2013-07-02 01:57:00,65.5,53.0,30.02,North,357,2.0,6.0,64,0.00,,SKC,0.00,VWS V12.07,2013-07-02 06:57:00,
2013-07-02 02:03:00,65.4,53.3,30.02,East,91,3.0,3.0,65,0.00,,SKC,0.00,VWS V12.07,2013-07-02 07:03:00,
2013-07-02 02:10:00,65.4,53.3,30.02,ENE,60,7.0,7.0,65,0.00,,SKC,0.00,VWS V12.07,2013-07-02 07:10:00,
2013-07-02 02:16:00,65.3,53.2,30.02,NE,45,1.0,7.0,65,0.00,,SKC,0.00,VWS V12.07,2013-07-02 07:16:00,
2013-07-02 02:24:00,65.2,53.2,30.02,ENE,75,2.0,7.0,65,0.00,,SKC,0.00,VWS V12.07,2013-07-02 07:24:00,
2013-07-02 02:29:00,65.1,53.5,30.02,North,360,3.0,7.0,66,0.00,,SKC,0.00,VWS V12.07,2013-07-02 07:29:00,
2013-07-02 02:37:00,65.3,53.2,30.02,ENE,65,4.0,7.0,65,0.00,,SKC,0.00,VWS V12.07,2013-07-02 07:37:00,
2013-07-02 02:43:00,65.2,53.6,30.02,North,356,3.0,9.0,66,0.00,,SKC,0.00,VWS V12.07,2013-07-02 07:43:00,
2013-07-02 02:49:00,65.1,53.5,30.02,North,359,3.0,9.0,66,0.00,,SKC,0.00,VWS V12.07,2013-07-02 07:49:00,
2013-07-02 02:56:00,65.0,53.4,30.02,NNW,342,1.0,9.0,66,0.00,,SKC,0.00,VWS V12.07,2013-07-02 07:56:00,
2013-07-02 03:04:00,64.9,53.3,30.02,East,99,0.0,5.0,66,0.00,,SKC,0.00,VWS V12.07,2013-07-02 08:04:00,
2013-07-02 03:10:00,64.9,53.3,30.02,NE,36,1.0,8.0,66,0.00,,SKC,0.00,VWS V12.07,2013-07-02 08:10:00,
2013-07-02 03:17:00,64.8,53.2,30.02,West,271,1.0,8.0,66,0.00,,SKC,0.00,VWS V12.07,2013-07-02 08:17:00,
2013-07-02 03:24:00,64.6,53.4,30.02,NNE,30,0.0,8.0,67,0.00,,SKC,0.00,VWS V12.07,2013-07-02 08:24:00,
2013-07-02 03:30:00,64.6,53.4,30.02,NE,45,1.0,8.0,67,0.00,,SKC,0.00,VWS V12.07,2013-07-02 08:30:00,
2013-07-02 03:37:00,64.5,53.3,30.02,North,11,1.0,4.0,67,0.00,,SKC,0.00,VWS V12.07,2013-07-02 08:37:00,
2013-07-02 03:44:00,64.5,53.3,30.02,NNE,30,2.0,6.0,67,0.00,,SKC,0.00,VWS V12.07,2013-07-02 08:44:00,
2013-07-02 03:50:00,64.3,53.5,30.02,ENE,71,2.0,6.0,68,0.00,,SKC,0.00,VWS V12.07,2013-07-02 08:50:00,
2013-07-02 03:57:00,64.3,53.5,30.02,NE,37,3.0,6.0,68,0.00,,SKC,0.00,VWS V12.07,2013-07-02 08:57:00,
2013-07-02 04:04:00,64.2,53.4,30.03,NE,44,2.0,3.0,68,0.00,,SKC,0.00,VWS V12.07,2013-07-02 09:04:00,
2013-07-02 04:10:00,64.1,53.3,30.03,NE,38,3.0,4.0,68,0.00,,SKC,0.00,VWS V12.07,2013-07-02 09:10:00,
2013-07-02 04:17:00,63.8,53.5,30.03,NNE,13,3.0,5.0,69,0.00,,SKC,0.00,VWS V12.07,2013-07-02 09:17:00,
2013-07-02 04:23:00,63.7,53.3,30.03,NNE,26,1.0,5.0,69,0.00,,SKC,0.00,VWS V12.07,2013-07-02 09:23:00,
2013-07-02 04:29:00,63.5,53.2,30.03,North,1,3.0,6.0,69,0.00,,SKC,0.00,VWS V12.07,2013-07-02 09:29:00,
2013-07-02 04:37:00,63.3,53.4,30.03,WNW,295,2.0,5.0,70,0.00,,SKC,0.00,VWS V12.07,2013-07-02 09:37:00,
2013-07-02 04:44:00,63.2,53.3,30.03,NE,48,1.0,5.0,70,0.00,,SKC,0.00,VWS V12.07,2013-07-02 09:44:00,
2013-07-02 04:49:00,63.0,53.5,30.03,NW,325,1.0,5.0,71,0.00,,SKC,0.00,VWS V12.07,2013-07-02 09:49:00,
2013-07-02 04:57:00,62.8,53.3,30.03,NNE,32,0.0,5.0,71,0.00,,SKC,0.00,VWS V12.07,2013-07-02 09:57:00,
2013-07-02 05:03:00,62.6,53.1,30.03,North,6,5.0,6.0,71,0.00,,SKC,0.00,VWS V12.07,2013-07-02 10:03:00,
2013-07-02 05:09:00,62.5,53.4,30.03,NE,53,2.0,6.0,72,0.00,,SKC,0.00,VWS V12.07,2013-07-02 10:09:00,
2013-07-02 05:17:00,62.2,53.1,30.03,NNE,12,3.0,6.0,72,0.00,,SKC,0.00,VWS V12.07,2013-07-02 10:17:00,
2013-07-02 05:24:00,62.0,53.3,30.03,NE,56,0.0,6.0,73,0.00,,SKC,0.00,VWS V12.07,2013-07-02 10:24:00,
2013-07-02 05:30:00,61.6,53.2,30.03,ENE,65,0.0,6.0,74,0.00,,SKC,0.00,VWS V12.07,2013-07-02 10:30:00,
2013-07-02 05:37:00,61.4,53.0,30.04,NNE,26,0.0,5.0,74,0.00,,SKC,0.00,VWS V12.07,2013-07-02 10:37:00,
2013-07-02 05:43:00,61.1,53.1,30.04,North,357,2.0,5.0,75,0.00,,SKC,0.00,VWS V12.07,2013-07-02 10:43:00,
2013-07-02 05:50:00,60.9,53.3,30.04,NW,318,1.0,5.0,76,0.00,,SKC,0.00,VWS V12.07,2013-07-02 10:50:00,
2013-07-02 05:57:00,60.5,53.3,30.04,NNW,342,0.0,5.0,77,0.00,,SKC,0.00,VWS V12.07,2013-07-02 10:57:00,
2013-07-02 06:03:00,60.2,53.3,30.04,NE,44,0.0,1.0,78,0.00,,SKC,0.00,VWS V12.07,2013-07-02 11:03:00,
2013-07-02 06:10:00,60.0,53.5,30.05,North,4,0.0,3.0,79,0.00,,SKC,0.00,VWS V12.07,2013-07-02 11:10:00,
2013-07-02 06:17:00,59.9,53.4,30.05,NNE,23,0.0,3.0,79,0.00,,SKC,0.00,VWS V12.07,2013-07-02 11:17:00,
2013-07-02 06:24:00,59.9,53.7,30.05,North,358,1.0,4.0,80,0.00,,SKC,0.00,VWS V12.07,2013-07-02 11:24:00,
2013-07-02 06:29:00,60.1,53.9,30.05,NNE,28,1.0,4.0,80,0.00,,SKC,0.00,VWS V12.07,2013-07-02 11:29:00,
2013-07-02 06:36:00,60.3,54.1,30.06,North,10,0.0,4.0,80,0.00,,SKC,0.00,VWS V12.07,2013-07-02 11:36:00,
2013-07-02 06:44:00,60.5,54.3,30.06,NNE,22,3.0,4.0,80,0.00,,SKC,0.00,VWS V12.07,2013-07-02 11:44:00,
2013-07-02 06:50:00,60.6,54.4,30.06,North,11,0.0,4.0,80,0.00,,SKC,0.00,VWS V12.07,2013-07-02 11:50:00,
2013-07-02 06:57:00,60.9,54.7,30.06,NNE,30,1.0,4.0,80,0.00,,SKC,0.00,VWS V12.07,2013-07-02 11:57:00,
2013-07-02 07:04:00,61.3,54.7,30.06,ENE,70,1.0,5.0,79,0.00,,SKC,0.00,VWS V12.07,2013-07-02 12:04:00,
2013-07-02 07:12:00,61.6,54.7,30.06,WNW,300,0.0,5.0,78,0.00,,SKC,0.00,VWS V12.07,2013-07-02 12:12:00,
2013-07-02 07:19:00,61.7,54.8,30.06,NNE,30,5.0,8.0,78,0.00,,SKC,0.00,VWS V12.07,2013-07-02 12:19:00,
2013-07-02 07:26:00,62.0,55.1,30.06,NE,49,1.0,9.0,78,0.00,,SKC,0.00,VWS V12.07,2013-07-02 12:26:00,
2013-07-02 07:34:00,62.6,55.3,30.07,East,89,1.0,4.0,77,0.00,,SKC,0.00,VWS V12.07,2013-07-02 12:34:00,
2013-07-02 07:42:00,63.7,55.6,30.07,NW,311,0.0,5.0,75,0.00,,SKC,0.00,VWS V12.07,2013-07-02 12:42:00,
2013-07-02 07:49:00,64.4,55.9,30.06,NE,49,2.0,6.0,74,0.00,,SKC,0.00,VWS V12.07,2013-07-02 12:49:00,
2013-07-02 07:55:00,64.8,56.0,30.06,ENE,76,4.0,8.0,73,0.00,,SKC,0.00,VWS V12.07,2013-07-02 12:55:00,
2013-07-02 08:04:00,65.0,56.2,30.06,ENE,58,3.0,7.0,73,0.00,,SKC,0.00,VWS V12.07,2013-07-02 13:04:00,
2013-07-02 08:09:00,65.5,56.2,30.06,NE,49,3.0,7.0,72,0.00,,SKC,0.00,VWS V12.07,2013-07-02 13:09:00,
2013-07-02 08:15:00,65.9,56.2,30.06,NNW,340,4.0,7.0,71,0.00,,SKC,0.00,VWS V12.07,2013-07-02 13:15:00,
2013-07-02 08:24:00,65.8,56.2,30.06,ESE,115,5.0,7.0,71,0.00,,SKC,0.00,VWS V12.07,2013-07-02 13:24:00,
2013-07-02 08:29:00,65.6,56.3,30.06,NE,49,1.0,7.0,72,0.00,,SKC,0.00,VWS V12.07,2013-07-02 13:29:00,
2013-07-02 08:36:00,65.7,56.4,30.06,NNE,28,5.0,5.0,72,0.00,,SKC,0.00,VWS V12.07,2013-07-02 13:36:00,
2013-07-02 08:44:00,65.8,56.5,30.06,ENE,58,4.0,7.0,72,0.00,,SKC,0.00,VWS V12.07,2013-07-02 13:44:00,
2013-07-02 08:52:00,66.3,57.0,30.06,NW,315,2.0,7.0,72,0.00,,SKC,0.00,VWS V12.07,2013-07-02 13:52:00,
2013-07-02 09:00:00,66.8,57.1,30.07,ESE,113,0.0,7.0,71,0.00,,SKC,0.00,VWS V12.07,2013-07-02 14:00:00,
2013-07-02 09:07:00,67.5,57.4,30.07,North,357,1.0,6.0,70,0.00,,SKC,0.00,VWS V12.07,2013-07-02 14:07:00,
2013-07-02 09:14:00,68.3,57.8,30.07,NNW,333,6.0,7.0,69,0.00,,SKC,0.00,VWS V12.07,2013-07-02 14:14:00,
2013-07-02 09:22:00,69.0,58.0,30.07,WNW,300,1.0,10.0,68,0.00,,SKC,0.00,VWS V12.07,2013-07-02 14:22:00,
2013-07-02 09:29:00,69.1,58.1,30.07,NNW,333,3.0,10.0,68,0.00,,SKC,0.00,VWS V12.07,2013-07-02 14:29:00,
2013-07-02 09:38:00,69.2,57.8,30.06,WNW,291,0.0,8.0,67,0.00,,SKC,0.00,VWS V12.07,2013-07-02 14:38:00,
2013-07-02 09:44:00,69.2,58.2,30.06,NE,39,5.0,9.0,68,0.00,,SKC,0.00,VWS V12.07,2013-07-02 14:44:00,
2013-07-02 09:49:00,69.5,58.5,30.06,East,81,1.0,9.0,68,0.00,,SKC,0.00,VWS V12.07,2013-07-02 14:49:00,
2013-07-02 09:57:00,70.3,58.8,30.06,NE,39,4.0,12.0,67,0.00,,SKC,0.00,VWS V12.07,2013-07-02 14:57:00,
2013-07-02 10:04:00,70.5,58.6,30.06,North,349,5.0,7.0,66,0.00,,SKC,0.00,VWS V12.07,2013-07-02 15:04:00,
2013-07-02 10:11:00,70.6,58.7,30.06,NW,320,3.0,7.0,66,0.00,,SKC,0.00,VWS V12.07,2013-07-02 15:11:00,
2013-07-02 10:18:00,70.8,59.3,30.06,NNE,33,4.0,8.0,67,0.00,,SKC,0.00,VWS V12.07,2013-07-02 15:18:00,
2013-07-02 10:25:00,71.3,59.8,30.06,SE,125,1.0,8.0,67,0.00,,SKC,0.00,VWS V12.07,2013-07-02 15:25:00,
2013-07-02 10:34:00,71.8,57.6,30.06,NW,326,4.0,10.0,61,0.00,,SKC,0.00,VWS V12.07,2013-07-02 15:34:00,
2013-07-02 10:44:00,72.5,57.8,30.06,NNE,24,2.0,10.0,60,0.00,,SKC,0.00,VWS V12.07,2013-07-02 15:44:00,
2013-07-02 10:54:00,73.2,57.5,30.05,WNW,297,4.0,12.0,58,0.00,,SKC,0.00,VWS V12.07,2013-07-02 15:54:00,
2013-07-02 11:04:00,74.0,58.3,30.05,NE,46,4.0,10.0,58,0.00,,SKC,0.00,VWS V12.07,2013-07-02 16:04:00,
2013-07-02 11:14:00,73.9,57.2,30.05,NNE,27,4.0,12.0,56,0.00,,SKC,0.00,VWS V12.07,2013-07-02 16:14:00,
2013-07-02 11:19:00,74.0,56.8,30.05,WSW,248,2.0,12.0,55,0.00,,SKC,0.00,VWS V12.07,2013-07-02 16:19:00,
2013-07-02 11:29:00,74.5,56.8,30.05,NNW,347,1.0,12.0,54,0.00,,SKC,0.00,VWS V12.07,2013-07-02 16:29:00,
2013-07-02 11:34:00,75.4,58.1,30.05,NE,47,4.0,11.0,55,0.00,,SKC,0.00,VWS V12.07,2013-07-02 16:34:00,
2013-07-02 11:44:00,75.9,54.8,30.05,North,8,7.0,13.0,48,0.00,,SKC,0.00,VWS V12.07,2013-07-02 16:44:00,
2013-07-02 11:49:00,75.2,55.3,30.05,SE,145,4.0,13.0,50,0.00,,SKC,0.00,VWS V12.07,2013-07-02 16:49:00,
2013-07-02 11:54:00,75.4,56.0,30.05,NNW,336,3.0,13.0,51,0.00,,SKC,0.00,VWS V12.07,2013-07-02 16:54:00,
2013-07-02 12:04:00,76.1,54.4,30.05,East,81,7.0,12.0,47,0.00,,SKC,0.00,VWS V12.07,2013-07-02 17:04:00,
2013-07-02 12:09:00,76.5,54.8,30.05,North,355,4.0,12.0,47,0.00,,SKC,0.00,VWS V12.07,2013-07-02 17:09:00,
2013-07-02 12:14:00,76.8,56.8,30.05,NE,44,6.0,12.0,50,0.00,,SKC,0.00,VWS V12.07,2013-07-02 17:14:00,
2013-07-02 12:24:00,77.2,56.0,30.05,ENE,58,5.0,15.0,48,0.00,,SKC,0.00,VWS V12.07,2013-07-02 17:24:00,
2013-07-02 12:32:00,76.8,56.8,30.05,ENE,73,4.0,6.0,50,0.00,,SKC,0.00,VWS V12.07,2013-07-02 17:32:00,
2013-07-02 12:40:00,76.3,56.3,30.05,ENE,61,2.0,13.0,50,0.00,,SKC,0.00,VWS V12.07,2013-07-02 17:40:00,
2013-07-02 12:49:00,75.8,55.3,30.05,NNE,33,9.0,15.0,49,0.00,,SKC,0.00,VWS V12.07,2013-07-02 17:49:00,
2013-07-02 12:54:00,75.7,55.8,30.05,ENE,71,5.0,15.0,50,0.00,,SKC,0.00,VWS V12.07,2013-07-02 17:54:00,
2013-07-02 12:59:00,75.9,56.5,30.05,SE,126,2.0,15.0,51,0.00,,SKC,0.00,VWS V12.07,2013-07-02 17:59:00,
2013-07-02 13:09:00,76.4,55.3,30.05,ENE,64,4.0,12.0,48,0.00,,SKC,0.00,VWS V12.07,2013-07-02 18:09:00,
2013-07-02 13:19:00,76.6,55.5,30.04,ENE,58,7.0,14.0,48,0.00,,SKC,0.00,VWS V12.07,2013-07-02 18:19:00,
2013-07-02 13:29:00,76.6,56.0,30.04,NNE,17,2.0,14.0,49,0.00,,SKC,0.00,VWS V12.07,2013-07-02 18:29:00,
2013-07-02 13:34:00,76.8,56.8,30.04,NE,56,4.0,11.0,50,0.00,,SKC,0.00,VWS V12.07,2013-07-02 18:34:00,
2013-07-02 13:39:00,77.1,56.5,30.04,East,93,6.0,11.0,49,0.00,,SKC,0.00,VWS V12.07,2013-07-02 18:39:00,
2013-07-02 13:44:00,77.0,55.8,30.04,ENE,67,1.0,11.0,48,0.00,,SKC,0.00,VWS V12.07,2013-07-02 18:44:00,
2013-07-02 13:49:00,76.7,55.5,30.04,East,89,2.0,11.0,48,0.00,,SKC,0.00,VWS V12.07,2013-07-02 18:49:00,
2013-07-02 13:56:00,76.4,55.3,30.04,NE,40,1.0,13.0,48,0.00,,SKC,0.00,VWS V12.07,2013-07-02 18:56:00,
2013-07-02 14:04:00,76.2,55.7,30.04,SSE,160,2.0,6.0,49,0.00,,SKC,0.00,VWS V12.07,2013-07-02 19:04:00,
2013-07-02 14:09:00,76.1,56.1,30.04,East,89,5.0,8.0,50,0.00,,SKC,0.00,VWS V12.07,2013-07-02 19:09:00,
2013-07-02 14:17:00,75.7,55.2,30.04,ENE,74,1.0,11.0,49,0.00,,SKC,0.00,VWS V12.07,2013-07-02 19:17:00,
2013-07-02 14:25:00,75.7,56.3,30.04,East,101,3.0,11.0,51,0.00,,SKC,0.00,VWS V12.07,2013-07-02 19:25:00,
2013-07-02 14:34:00,76.0,56.0,30.04,ENE,68,0.0,6.0,50,0.00,,SKC,0.00,VWS V12.07,2013-07-02 19:34:00,
2013-07-02 14:39:00,76.3,58.5,30.04,East,82,0.0,6.0,54,0.00,,SKC,0.00,VWS V12.07,2013-07-02 19:39:00,
2013-07-02 14:49:00,76.7,57.8,30.04,NNE,30,2.0,9.0,52,0.00,,SKC,0.00,VWS V12.07,2013-07-02 19:49:00,
2013-07-02 14:59:00,76.6,56.6,30.03,East,91,0.0,10.0,50,0.00,,SKC,0.00,VWS V12.07,2013-07-02 19:59:00,
2013-07-02 15:04:00,76.4,56.4,30.03,East,93,2.0,7.0,50,0.00,,SKC,0.00,VWS V12.07,2013-07-02 20:04:00,
2013-07-02 15:09:00,76.3,56.9,30.03,ENE,58,4.0,8.0,51,0.00,,SKC,0.00,VWS V12.07,2013-07-02 20:09:00,
2013-07-02 15:14:00,76.1,56.7,30.03,East,90,1.0,8.0,51,0.00,,SKC,0.00,VWS V12.07,2013-07-02 20:14:00,
2013-07-02 15:24:00,76.0,57.7,30.03,ENE,61,0.0,8.0,53,0.00,,SKC,0.00,VWS V12.07,2013-07-02 20:24:00,
2013-07-02 15:34:00,76.1,57.2,30.03,ENE,61,3.0,7.0,52,0.00,,SKC,0.00,VWS V12.07,2013-07-02 20:34:00,
2013-07-02 15:41:00,76.1,58.3,30.03,NW,304,0.0,7.0,54,0.00,,SKC,0.00,VWS V12.07,2013-07-02 20:41:00,
2013-07-02 15:49:00,76.1,57.8,30.03,North,6,5.0,7.0,53,0.00,,SKC,0.00,VWS V12.07,2013-07-02 20:49:00,
2013-07-02 15:54:00,76.0,57.1,30.03,NE,44,4.0,7.0,52,0.00,,SKC,0.00,VWS V12.07,2013-07-02 20:54:00,
2013-07-02 16:04:00,76.3,59.0,30.03,NNW,346,1.0,3.0,55,0.00,,SKC,0.00,VWS V12.07,2013-07-02 21:04:00,
2013-07-02 16:09:00,76.3,59.5,30.03,NE,36,0.0,4.0,56,0.00,,SKC,0.00,VWS V12.07,2013-07-02 21:09:00,
2013-07-02 16:14:00,76.4,58.5,30.02,East,82,1.0,5.0,54,0.00,,SKC,0.00,VWS V12.07,2013-07-02 21:14:00,
2013-07-02 16:24:00,76.6,59.2,30.02,ESE,120,0.0,5.0,55,0.00,,SKC,0.00,VWS V12.07,2013-07-02 21:24:00,
2013-07-02 16:29:00,76.6,59.8,30.02,ESE,102,0.0,5.0,56,0.00,,SKC,0.00,VWS V12.07,2013-07-02 21:29:00,
2013-07-02 16:37:00,76.3,59.0,30.02,ESE,108,1.0,5.0,55,0.00,,SKC,0.00,VWS V12.07,2013-07-02 21:37:00,
2013-07-02 16:45:00,76.1,59.3,30.02,ENE,72,1.0,5.0,56,0.00,,SKC,0.00,VWS V12.07,2013-07-02 21:45:00,
2013-07-02 16:54:00,76.1,59.8,30.02,ESE,105,0.0,5.0,57,0.00,,SKC,0.00,VWS V12.07,2013-07-02 21:54:00,
2013-07-02 17:04:00,76.1,59.3,30.02,ESE,105,0.0,3.0,56,0.00,,SKC,0.00,VWS V12.07,2013-07-02 22:04:00,
2013-07-02 17:12:00,76.1,58.8,30.02,SE,128,3.0,4.0,55,0.00,,SKC,0.00,VWS V12.07,2013-07-02 22:12:00,
2013-07-02 17:19:00,76.0,59.2,30.02,ESE,108,0.0,4.0,56,0.00,,SKC,0.00,VWS V12.07,2013-07-02 22:19:00,
2013-07-02 17:26:00,76.0,59.2,30.02,ESE,113,0.0,4.0,56,0.00,,SKC,0.00,VWS V12.07,2013-07-02 22:26:00,
2013-07-02 17:34:00,76.1,61.2,30.02,ESE,113,0.0,0.0,60,0.00,,SKC,0.00,VWS V12.07,2013-07-02 22:34:00,
2013-07-02 17:40:00,76.2,59.9,30.02,ENE,58,0.0,0.0,57,0.00,,SKC,0.00,VWS V12.07,2013-07-02 22:40:00,
2013-07-02 17:49:00,76.2,61.3,30.02,ENE,58,0.0,0.0,60,0.00,,SKC,0.00,VWS V12.07,2013-07-02 22:49:00,
2013-07-02 17:54:00,76.0,60.7,30.01,ENE,58,0.0,0.0,59,0.00,,SKC,0.00,VWS V12.07,2013-07-02 22:54:00,
2013-07-02 18:00:00,76.0,61.6,30.02,ENE,58,0.0,0.0,61,0.00,,SKC,0.00,VWS V12.07,2013-07-02 23:00:00,
2013-07-02 18:09:00,75.9,62.9,30.02,SE,143,0.0,1.0,64,0.00,,SKC,0.00,VWS V12.07,2013-07-02 23:09:00,
2013-07-02 18:19:00,75.2,61.3,30.01,SE,133,1.0,2.0,62,0.00,,SKC,0.00,VWS V12.07,2013-07-02 23:19:00,
2013-07-02 18:29:00,74.6,61.6,30.01,SE,126,1.0,3.0,64,0.00,,SKC,0.00,VWS V12.07,2013-07-02 23:29:00,
2013-07-02 18:35:00,74.4,62.3,30.01,SE,139,1.0,3.0,66,0.00,,SKC,0.00,VWS V12.07,2013-07-02 23:35:00,
2013-07-02 18:39:00,74.2,63.0,30.01,SE,143,0.0,3.0,68,0.00,,SKC,0.00,VWS V12.07,2013-07-02 23:39:00,
2013-07-02 18:46:00,74.2,63.0,30.01,SE,145,0.0,3.0,68,0.00,,SKC,0.00,VWS V12.07,2013-07-02 23:46:00,
2013-07-02 18:54:00,74.2,63.4,30.01,SW,214,0.0,3.0,69,0.00,,SKC,0.00,VWS V12.07,2013-07-02 23:54:00,
2013-07-02 18:59:00,74.2,63.4,30.01,SSW,212,0.0,3.0,69,0.00,,SKC,0.00,VWS V12.07,2013-07-02 23:59:00,
2013-07-02 19:09:00,74.0,63.6,30.01,SSW,212,0.0,0.0,70,0.00,,SKC,0.00,VWS V12.07,2013-07-03 00:09:00,
2013-07-02 19:14:00,73.9,63.5,30.02,SSW,212,0.0,0.0,70,0.00,,SKC,0.00,VWS V12.07,2013-07-03 00:14:00,
2013-07-02 19:19:00,73.7,63.3,30.02,SSW,212,0.0,0.0,70,0.00,,SKC,0.00,VWS V12.07,2013-07-03 00:19:00,
2013-07-02 19:29:00,72.9,62.5,30.02,SSW,212,0.0,0.0,70,0.00,,SKC,0.00,VWS V12.07,2013-07-03 00:29:00,
2013-07-02 19:34:00,72.6,62.7,30.02,SSW,213,0.0,0.0,71,0.00,,SKC,0.00,VWS V12.07,2013-07-03 00:34:00,
2013-07-02 19:42:00,72.4,62.1,30.02,NNW,344,0.0,2.0,70,0.00,,SKC,0.00,VWS V12.07,2013-07-03 00:42:00,
2013-07-02 19:50:00,71.9,62.4,30.02,East,86,0.0,2.0,72,0.00,,SKC,0.00,VWS V12.07,2013-07-03 00:50:00,
2013-07-02 19:54:00,71.6,62.1,30.02,East,86,0.0,2.0,72,0.00,,SKC,0.00,VWS V12.07,2013-07-03 00:54:00,
2013-07-02 20:00:00,71.1,62.4,30.02,SE,137,0.0,2.0,74,0.00,,SKC,0.00,VWS V12.07,2013-07-03 01:00:00,
2013-07-02 20:04:00,70.9,61.8,30.02,SE,145,0.0,1.0,73,0.00,,SKC,0.00,VWS V12.07,2013-07-03 01:04:00,
2013-07-02 20:09:00,70.7,61.6,30.02,SE,146,0.0,1.0,73,0.00,,SKC,0.00,VWS V12.07,2013-07-03 01:09:00,
2013-07-02 20:14:00,70.6,61.5,30.02,SE,145,0.0,1.0,73,0.00,,SKC,0.00,VWS V12.07,2013-07-03 01:14:00,
2013-07-02 20:19:00,70.1,61.0,30.02,SE,145,0.0,1.0,73,0.00,,SKC,0.00,VWS V12.07,2013-07-03 01:19:00,
2013-07-02 20:24:00,69.5,60.9,30.02,SE,146,0.0,1.0,74,0.00,,SKC,0.00,VWS V12.07,2013-07-03 01:24:00,
2013-07-02 20:29:00,69.0,60.8,30.02,SE,145,0.0,1.0,75,0.00,,SKC,0.00,VWS V12.07,2013-07-03 01:29:00,
2013-07-02 20:32:00,68.6,60.7,30.02,SE,145,0.0,0.0,76,0.00,,SKC,0.00,VWS V12.07,2013-07-03 01:32:00,
2013-07-02 20:39:00,67.7,61.3,30.02,SE,145,0.0,0.0,80,0.00,,SKC,0.00,VWS V12.07,2013-07-03 01:39:00,
2013-07-02 20:44:00,67.1,60.7,30.02,SE,146,0.0,0.0,80,0.00,,SKC,0.00,VWS V12.07,2013-07-03 01:44:00,
2013-07-02 20:49:00,66.5,59.8,30.02,SE,145,0.0,0.0,79,0.00,,SKC,0.00,VWS V12.07,2013-07-03 01:49:00,
2013-07-02 20:59:00,65.8,59.8,30.02,SE,145,0.0,0.0,81,0.00,,SKC,0.00,VWS V12.07,2013-07-03 01:59:00,
2013-07-02 21:04:00,65.8,59.8,30.03,SE,146,0.0,0.0,81,0.00,,SKC,0.00,VWS V12.07,2013-07-03 02:04:00,
2013-07-02 21:10:00,65.8,59.8,30.03,SE,145,0.0,0.0,81,0.00,,SKC,0.00,VWS V12.07,2013-07-03 02:10:00,
2013-07-02 21:19:00,65.2,59.2,30.03,SE,146,0.0,0.0,81,0.00,,SKC,0.00,VWS V12.07,2013-07-03 02:19:00,
2013-07-02 21:26:00,65.1,59.5,30.03,SE,145,0.0,1.0,82,0.00,,SKC,0.00,VWS V12.07,2013-07-03 02:26:00,
2013-07-02 21:34:00,65.4,59.8,30.03,SE,145,0.0,0.0,82,0.00,,SKC,0.00,VWS V12.07,2013-07-03 02:34:00,
2013-07-02 21:40:00,65.2,59.9,30.03,SE,145,0.0,0.0,83,0.00,,SKC,0.00,VWS V12.07,2013-07-03 02:40:00,
2013-07-02 21:44:00,65.2,59.9,30.03,SE,146,0.0,0.0,83,0.00,,SKC,0.00,VWS V12.07,2013-07-03 02:44:00,
2013-07-02 21:49:00,65.4,59.8,30.04,SE,145,0.0,0.0,82,0.00,,SKC,0.00,VWS V12.07,2013-07-03 02:49:00,
2013-07-02 21:54:00,65.3,59.7,30.04,SE,145,0.0,0.0,82,0.00,,SKC,0.00,VWS V12.07,2013-07-03 02:54:00,
2013-07-02 22:04:00,65.3,59.7,30.04,SE,131,0.0,0.0,82,0.00,,SKC,0.00,VWS V12.07,2013-07-03 03:04:00,
2013-07-02 22:10:00,65.2,59.6,30.04,SE,132,2.0,2.0,82,0.00,,SKC,0.00,VWS V12.07,2013-07-03 03:10:00,
2013-07-02 22:19:00,65.0,59.7,30.04,SE,138,2.0,3.0,83,0.00,,SKC,0.00,VWS V12.07,2013-07-03 03:19:00,
2013-07-02 22:29:00,64.8,59.9,30.04,SE,138,2.0,3.0,84,0.00,,SKC,0.00,VWS V12.07,2013-07-03 03:29:00,
2013-07-02 22:34:00,64.7,59.8,30.04,SE,139,0.0,1.0,84,0.00,,SKC,0.00,VWS V12.07,2013-07-03 03:34:00,
2013-07-02 22:44:00,64.3,59.4,30.04,South,170,1.0,2.0,84,0.00,,SKC,0.00,VWS V12.07,2013-07-03 03:44:00,
2013-07-02 22:54:00,64.1,59.5,30.04,SE,138,1.0,3.0,85,0.00,,SKC,0.00,VWS V12.07,2013-07-03 03:54:00,
2013-07-02 23:00:00,64.0,59.4,30.04,SE,138,0.0,3.0,85,0.00,,SKC,0.00,VWS V12.07,2013-07-03 04:00:00,
2013-07-02 23:04:00,64.0,59.4,30.04,SE,141,0.0,2.0,85,0.00,,SKC,0.00,VWS V12.07,2013-07-03 04:04:00,
2013-07-02 23:07:00,63.9,59.3,30.04,SSE,158,0.0,2.0,85,0.00,,SKC,0.00,VWS V12.07,2013-07-03 04:07:00,
2013-07-02 23:14:00,63.9,59.0,30.04,SSE,160,0.0,2.0,84,0.00,,SKC,0.00,VWS V12.07,2013-07-03 04:14:00,
2013-07-02 23:20:00,63.8,58.9,30.05,South,177,0.0,2.0,84,0.00,,SKC,0.00,VWS V12.07,2013-07-03 04:20:00,
2013-07-02 23:27:00,63.7,58.8,30.05,South,177,0.0,2.0,84,0.00,,SKC,0.00,VWS V12.07,2013-07-03 04:27:00,
2013-07-02 23:30:00,63.6,59.0,30.05,SE,137,2.0,2.0,85,0.00,,SKC,0.00,VWS V12.07,2013-07-03 04:30:00,
2013-07-02 23:37:00,63.8,59.2,30.04,SE,134,1.0,2.0,85,0.00,,SKC,0.00,VWS V12.07,2013-07-03 04:37:00,
2013-07-02 23:40:00,63.7,58.8,30.04,SE,134,1.0,2.0,84,0.00,,SKC,0.00,VWS V12.07,2013-07-03 04:40:00,
2013-07-02 23:47:00,63.5,58.6,30.04,SE,139,0.0,2.0,84,0.00,,SKC,0.00,VWS V12.07,2013-07-03 04:47:00,
2013-07-02 23:50:00,63.4,58.8,30.04,SE,139,1.0,2.0,85,0.00,,SKC,0.00,VWS V12.07,2013-07-03 04:50:00,
2013-07-02 23:54:00,63.4,58.5,30.04,SE,137,0.0,2.0,84,0.00,,SKC,0.00,VWS V12.07,2013-07-03 04:54:00,
2013-07-02 23:57:00,63.4,58.5,30.04,SE,137,2.0,2.0,84,0.00,,SKC,0.00,VWS V12.07,2013-07-03 04:57:00,